[[{"header":{"parameterUnit":"m.s-1","parameterCategory":1,"la1":30.2991,"la2":30.254,"lo1":-89.0895,"lo2":-89.0444,"dy":0.0017,"dx":0.0017,"nx":28,"ny":28,"refTime":"2025-09-02T21:00:00:Z","depth":0,"parameterNumber":2,"parameterNumberName":"U-component_of_WINDS"},"data":[0,0,0,0,0,0,0,0,0,0,0,0,0,0,0,0,0,0,0,0,0,0,0,0,0,0,0,0,0,0,0,0,0,0,0,0,0,0,0,0,0,0,0,0,0,0,0,0,0,0,0,0,0,0,0,0,0,0,-4.6942,-4.6943,0,-4.6965,-4.6966,-4.6966,-4.686,-4.6857,-4.6854,-4.6851,-4.6876,-4.6879,-4.6883,0,0,0,0,0,0,0,0,0,0,0,0,0,-4.6809,-4.6812,-4.6942,-4.6943,-4.6943,-4.6965,-4.6966,-4.6966,-4.686,-4.6856,-4.6853,-4.6849,-4.6874,-4.6879,-4.6883,0,0,0,0,0,0,0,0,0,0,0,0,0,-4.6853,-4.6813,-4.6942,-4.6893,-4.6889,-4.6965,-4.6966,-4.6966,-4.6861,-4.6856,-4.6852,-4.6847,-4.6873,-4.6878,-4.6883,-4.7009,0,0,-4.69,-4.6902,0,0,0,0,0,0,0,0,-4.685,-4.6858,-4.69,-4.6896,-4.6892,-4.6905,-4.6928,-4.6981,-4.6862,-4.6872,-4.6851,-4.6845,-4.6889,-4.6893,-4.6907,-4.701,-4.7011,-4.69,-4.6903,-4.6906,-4.6907,0,0,0,0,0,0,0,-4.6848,-4.6856,-4.6951,-4.6901,-4.6896,-4.687,-4.6871,-4.6937,-4.6906,-4.687,-4.6863,-4.6867,-4.6886,-4.6903,-4.6907,-4.7012,-4.69,-4.6905,-4.6908,-4.691,-4.7221,-4.7226,0,0,0,0,0,0,-4.6851,-4.6854,-4.6951,-4.6952,-4.6859,-4.6876,-4.6878,-4.6905,-4.6905,-4.6901,-4.6871,-4.6862,-4.6896,-4.6901,-4.6908,-4.7056,-4.6906,-4.6911,-4.6914,-4.7216,-4.7222,-4.7228,0,0,0,0,0,0,-4.6848,-4.686,-4.695,-4.6901,-4.6911,-4.6884,-4.6916,-4.6908,-4.6924,-4.6905,-4.69,-4.6893,-4.6892,-4.69,-4.6985,-4.7055,-4.6913,-4.6918,-4.721,-4.7218,-4.7225,-4.7353,0,0,0,0,0,0,-4.6845,-4.686,-4.6907,-4.6903,-4.6914,-4.7026,-4.692,-4.6912,-4.6934,-4.6922,-4.6925,-4.6921,-4.6889,-4.6978,-4.699,-4.706,-4.6922,-4.7204,-4.7214,-4.7223,-4.7342,-4.7364,-4.7383,0,0,0,0,0,-4.6841,-4.6942,-4.691,-4.6922,-4.6972,-4.7031,-4.7037,-4.6998,-4.694,-4.6987,-4.6975,-4.6921,-4.7046,-4.6987,-4.7001,-4.7073,-4.7199,-4.7211,-4.7222,-4.7333,-4.736,-4.7382,0,0,0,0,0,0,-4.6954,-4.694,-4.6905,-4.7008,-4.7021,-4.7012,-4.7071,-4.7027,-4.7057,-4.7045,-4.6996,-4.6998,-4.7092,-4.7091,-4.7026,-4.7196,-4.7113,-4.7127,-4.7193,-4.7218,-4.7237,-4.7235,-4.6926,0,0,0,0,0,-4.6992,-4.704,-4.7025,-4.7118,-4.7126,-4.7098,-4.7122,-4.7091,-4.7103,-4.7109,-4.7103,-4.7117,-4.716,-4.7189,-4.7226,-4.7342,-4.7342,-4.7399,-4.7419,-4.7435,-4.7449,-4.7511,-4.7536,-4.7265,-4.7265,-4.7265,0,0,-4.7069,-4.7067,-4.7101,-4.7141,-4.7147,-4.72,-4.7103,-4.7162,-4.7201,-4.7118,-4.7197,-4.7194,-4.7207,-4.7308,-4.7353,-4.7311,-4.7524,-4.745,-4.7463,-4.7467,-4.7525,-4.7551,-4.7574,-4.7273,-4.7272,-4.727,0,0,-4.7236,-4.7239,-4.7317,-4.7326,-4.7338,-4.7319,-4.7338,-4.7336,-4.7331,-4.741,-4.735,-4.7395,-4.7469,-4.7481,-4.7497,-4.7672,-4.7624,-4.7686,-4.7791,-4.7853,-4.7874,-4.7893,-4.7956,-4.7979,-4.7699,-4.77,-4.77,0,-4.733,-4.7406,-4.7363,-4.7426,-4.7446,-4.7374,-4.7453,-4.7464,-4.7489,-4.7504,-4.7457,-4.755,-4.7553,-4.7657,-4.77,-4.7715,-4.7736,-4.7685,-4.7874,-4.7893,-4.7909,-4.7969,-4.7993,-4.7707,-4.7706,-4.7706,-4.7705,0,-4.7522,-4.7575,-4.7637,-4.7662,-4.7689,-4.7761,-4.7729,-4.7762,-4.773,-4.7716,-4.7799,-4.7801,-4.7839,-4.7862,-4.783,-4.7962,-4.7936,-4.7882,-4.7798,-4.7944,-4.7999,-4.8021,-4.7718,-4.7715,-4.7713,-4.7711,0,0,-4.7759,-4.7761,-4.7785,-4.7796,-4.7805,-4.7846,-4.7915,-4.7952,-4.7982,-4.8001,-4.8058,-4.8124,-4.8075,-4.8093,-4.8063,-4.8118,-4.8257,-4.8057,-4.8057,-4.8095,-4.8404,-4.8444,-4.8471,-4.8226,-4.823,-4.8233,-4.8403,0,-4.7923,-4.804,-4.8005,-4.8123,-4.8173,-4.8106,-4.8166,-4.8179,-4.8169,-4.821,-4.8199,-4.8246,-4.8178,-4.8189,-4.8239,-4.823,-4.8319,-4.8217,-4.8279,-4.8282,-4.8278,-4.85,-4.8542,-4.8702,-4.8424,-4.8428,-4.843,0,-4.813,-4.8158,-4.8282,-4.8284,-4.8303,-4.8358,-4.839,-4.8431,-4.8444,-4.8433,-4.8455,-4.8414,-4.8483,-4.8399,-4.8494,-4.8426,-4.845,-4.8449,-4.8454,-4.8458,-4.8365,-4.851,-4.8752,-4.8776,-4.8464,-4.8461,-4.8459,0,-4.8292,-4.8361,-4.8444,-4.8456,-4.846,-4.85,-4.8504,-4.8513,-4.8539,-4.8567,-4.8583,-4.862,-4.864,-4.867,-4.8641,-4.8582,-4.8741,-4.8654,-4.8734,-4.8735,-4.877,-4.8768,-4.9019,-4.8786,-4.8786,-4.8785,-4.8785,0,-4.8479,-4.8557,-4.8517,-4.8568,-4.8654,-4.8614,-4.8701,-4.8697,-4.8706,-4.8756,-4.8701,-4.8749,-4.8708,-4.8753,-4.8731,-4.8814,-4.8823,-4.8817,-4.881,-4.8822,-4.8823,-4.8836,-4.8825,-4.8792,-4.879,-4.8789,-4.8788,0,-4.8674,-4.865,-4.8736,-4.8734,-4.8735,-4.8799,-4.8797,-4.8845,-4.8832,-4.8896,-4.8909,-4.8888,-4.8938,-4.8913,-4.8965,-4.895,-4.9058,-4.9036,-4.9053,-4.9047,-4.9129,-4.9122,-4.9397,-4.9432,-4.9177,-4.9179,-4.9181,0,-4.8794,-4.8853,-4.8858,-4.8887,-4.8895,-4.8943,-4.8969,-4.8932,-4.8961,-4.8983,-4.9029,-4.9074,-4.9109,-4.9193,-4.9183,-4.9223,-4.9202,-4.9296,-4.9208,-4.9218,-4.9204,-4.9201,-4.9207,-4.9314,-4.9317,-4.9319,-4.9321,0,-4.9011,-4.8997,-4.9036,-4.9072,-4.9105,-4.9131,-4.9153,-4.9181,-4.9144,-4.918,-4.9231,-4.9258,-4.9313,-4.9359,-4.9395,-4.9399,-4.9355,-4.9349,-4.937,-4.9382,-4.939,-4.9388,-4.9101,-4.9343,-4.9341,-4.9339,-4.9338,-4.9337,-4.9173,-4.9223,-4.9234,-4.928,-4.9293,-4.9315,-4.936,-4.9353,-4.9395,-4.9436,-4.9412,-4.9472,-4.9486,-4.9529,-4.954,-4.9588,-4.955,-4.958,-4.9588,-4.9596,-4.9607,-4.9383,-4.9594,-4.9593,-4.9593,-4.9592,-4.9592,0,-4.9387,-4.9392,-4.9435,-4.9467,-4.9504,-4.9459,-4.9482,-4.9516,-4.9569,-4.9586,-4.9622,-4.9682,-4.9727,-4.9722,-4.9764,-4.9803,-4.9784,-4.9815,-4.9812,-4.9814,-4.9638,-4.9616,-4.983,-4.983,-4.983,-4.983,-4.983,-4.983,-4.9503,-4.9585,-4.9573,-4.9662,-4.9666,-4.9724,-4.9741,-4.9762,-4.9775,-4.9844,-4.9882,-4.9878,-4.9886,-4.9929,-4.9969,-4.9967,-4.9985,-5.0024,-5.0014,-4.985,-4.9826,-4.9804,-4.9783,-5.0028,-5.0029,-5.0186,-5.0188,-5.0189]},{"header":{"parameterUnit":"m.s-1","parameterCategory":1,"la1":30.2991,"la2":30.254,"lo1":-89.0895,"lo2":-89.0444,"dy":0.0017,"dx":0.0017,"nx":28,"ny":28,"refTime":"2025-09-02T21:00:00:Z","depth":0,"parameterNumber":3,"parameterNumberName":"V-component_of_WINDS"},"data":[0,0,0,0,0,0,0,0,0,0,0,0,0,0,0,0,0,0,0,0,0,0,0,0,0,0,0,0,0,0,0,0,0,0,0,0,0,0,0,0,0,0,0,0,0,0,0,0,0,0,0,0,0,0,0,0,0,0,-2.3869,-2.3869,0,-2.3842,-2.3842,-2.3842,-2.3797,-2.3796,-2.3795,-2.3795,-2.3768,-2.3768,-2.3768,0,0,0,0,0,0,0,0,0,0,0,0,0,-2.388,-2.388,-2.3869,-2.3869,-2.3868,-2.3842,-2.3842,-2.3842,-2.3797,-2.3796,-2.3795,-2.3794,-2.3768,-2.3768,-2.3768,0,0,0,0,0,0,0,0,0,0,0,0,0,-2.3867,-2.388,-2.3869,-2.3843,-2.384,-2.3842,-2.3842,-2.3841,-2.3797,-2.3796,-2.3795,-2.3794,-2.3768,-2.3768,-2.3768,-2.3793,0,0,-2.3768,-2.3768,0,0,0,0,0,0,0,0,-2.3868,-2.3866,-2.3847,-2.3845,-2.3842,-2.3822,-2.3836,-2.3825,-2.3798,-2.3814,-2.3795,-2.3793,-2.3787,-2.3785,-2.3783,-2.3791,-2.379,-2.3768,-2.3768,-2.3768,-2.3768,0,0,0,0,0,0,0,-2.3869,-2.3867,-2.3858,-2.3847,-2.3844,-2.3832,-2.3829,-2.3834,-2.3807,-2.3812,-2.3809,-2.3806,-2.3785,-2.3783,-2.3782,-2.379,-2.3768,-2.3768,-2.3768,-2.3768,-2.3816,-2.3817,0,0,0,0,0,0,-2.3873,-2.3868,-2.3859,-2.3858,-2.3852,-2.3833,-2.3829,-2.3829,-2.3807,-2.3803,-2.3808,-2.3804,-2.3783,-2.3782,-2.3781,-2.3808,-2.3768,-2.3768,-2.3768,-2.3815,-2.3816,-2.3818,0,0,0,0,0,0,-2.3874,-2.3873,-2.386,-2.3862,-2.386,-2.3834,-2.3835,-2.383,-2.3827,-2.3804,-2.3799,-2.381,-2.3782,-2.3781,-2.379,-2.3806,-2.3768,-2.3768,-2.3813,-2.3815,-2.3817,-2.3863,0,0,0,0,0,0,-2.3874,-2.3873,-2.3883,-2.3863,-2.386,-2.387,-2.3836,-2.383,-2.3828,-2.3823,-2.3805,-2.3801,-2.3781,-2.379,-2.379,-2.3806,-2.3768,-2.3812,-2.3814,-2.3817,-2.386,-2.3866,-2.3871,0,0,0,0,0,-2.3875,-2.3898,-2.3884,-2.3883,-2.3871,-2.3871,-2.387,-2.3847,-2.3829,-2.3838,-2.3823,-2.3801,-2.3804,-2.3791,-2.3791,-2.3807,-2.3811,-2.3814,-2.3816,-2.3857,-2.3865,-2.3871,0,0,0,0,0,0,-2.3921,-2.3894,-2.3879,-2.3896,-2.3886,-2.3864,-2.3875,-2.3856,-2.3851,-2.3847,-2.3819,-2.3815,-2.3828,-2.3818,-2.3804,-2.3829,-2.3804,-2.3807,-2.3835,-2.3842,-2.3848,-2.385,-2.3768,0,0,0,0,0,-2.3933,-2.3936,-2.3912,-2.3929,-2.3925,-2.3901,-2.39,-2.3883,-2.3872,-2.3868,-2.3853,-2.3843,-2.3841,-2.3841,-2.3839,-2.3858,-2.3853,-2.3868,-2.3874,-2.3879,-2.3882,-2.389,-2.3897,-2.3827,-2.3827,-2.3827,0,0,-2.3959,-2.3944,-2.3948,-2.3938,-2.3929,-2.3931,-2.3898,-2.3903,-2.3904,-2.3869,-2.3876,-2.3865,-2.3852,-2.3866,-2.3871,-2.3858,-2.39,-2.3883,-2.3887,-2.3887,-2.3894,-2.39,-2.3906,-2.3829,-2.3828,-2.3828,0,0,-2.4006,-2.3996,-2.4008,-2.3999,-2.3985,-2.3968,-2.3971,-2.3951,-2.3942,-2.3949,-2.3922,-2.3923,-2.3922,-2.3913,-2.3909,-2.395,-2.393,-2.395,-2.3981,-2.3989,-2.3995,-2.4,-2.4014,-2.402,-2.3953,-2.3953,-2.3953,0,-2.4039,-2.4043,-2.4017,-2.4023,-2.4019,-2.3986,-2.3998,-2.399,-2.3976,-2.3974,-2.3959,-2.3955,-2.3944,-2.3955,-2.3965,-2.3963,-2.3965,-2.3953,-2.3996,-2.4001,-2.4005,-2.4018,-2.4024,-2.3956,-2.3956,-2.3955,-2.3955,0,-2.4084,-2.4087,-2.4098,-2.4085,-2.4082,-2.4091,-2.4066,-2.4066,-2.4049,-2.4034,-2.4041,-2.4026,-2.4019,-2.402,-2.4004,-2.4028,-2.402,-2.4001,-2.3976,-2.4014,-2.4026,-2.4031,-2.3959,-2.3959,-2.3958,-2.3957,0,0,-2.4162,-2.4132,-2.4137,-2.413,-2.4111,-2.4113,-2.4119,-2.4112,-2.4113,-2.4103,-2.4108,-2.4106,-2.4088,-2.4083,-2.4065,-2.4072,-2.4105,-2.4052,-2.4051,-2.4062,-2.4131,-2.4145,-2.4152,-2.4091,-2.4092,-2.4093,-2.4132,0,-2.4205,-2.4216,-2.4192,-2.4208,-2.421,-2.4177,-2.4183,-2.4171,-2.4157,-2.4156,-2.4139,-2.4138,-2.4115,-2.4111,-2.4117,-2.41,-2.4119,-2.4097,-2.4095,-2.4095,-2.41,-2.4158,-2.4174,-2.4212,-2.4136,-2.4137,-2.4138,0,-2.4258,-2.4251,-2.4267,-2.4246,-2.4246,-2.4251,-2.4242,-2.4241,-2.4227,-2.4216,-2.4209,-2.4187,-2.4192,-2.4167,-2.4172,-2.4157,-2.4155,-2.4146,-2.4147,-2.4147,-2.4119,-2.4159,-2.4223,-2.4229,-2.4145,-2.4144,-2.4144,0,-2.4313,-2.4307,-2.4316,-2.4311,-2.4286,-2.4291,-2.4281,-2.4265,-2.4262,-2.4253,-2.4251,-2.4243,-2.4239,-2.4234,-2.421,-2.4194,-2.4218,-2.4191,-2.4208,-2.4209,-2.4215,-2.4215,-2.428,-2.4213,-2.4213,-2.4213,-2.4213,0,-2.4365,-2.4376,-2.434,-2.4345,-2.4356,-2.4328,-2.434,-2.4326,-2.4312,-2.4314,-2.4285,-2.4287,-2.4256,-2.4254,-2.4235,-2.4242,-2.424,-2.4231,-2.4226,-2.4234,-2.4235,-2.4232,-2.4229,-2.4215,-2.4214,-2.4214,-2.4214,0,-2.4428,-2.4405,-2.4412,-2.4387,-2.4381,-2.439,-2.4369,-2.4373,-2.4355,-2.4358,-2.4357,-2.433,-2.4326,-2.4302,-2.4293,-2.428,-2.4294,-2.4283,-2.4299,-2.4295,-2.4314,-2.4313,-2.438,-2.4387,-2.4316,-2.4316,-2.4317,0,-2.4463,-2.4471,-2.4446,-2.4445,-2.4436,-2.4435,-2.4431,-2.4403,-2.44,-2.4383,-2.4389,-2.4383,-2.4376,-2.4372,-2.4351,-2.4344,-2.4333,-2.4357,-2.4332,-2.4339,-2.4333,-2.4333,-2.4334,-2.4363,-2.4364,-2.4364,-2.4365,0,-2.4527,-2.4514,-2.451,-2.4501,-2.4498,-2.4489,-2.4479,-2.448,-2.4448,-2.4446,-2.4442,-2.4437,-2.4427,-2.4421,-2.441,-2.4399,-2.4377,-2.4373,-2.4376,-2.4385,-2.4393,-2.4389,-2.4313,-2.4372,-2.4371,-2.4371,-2.437,-2.437,-2.4577,-2.4582,-2.4565,-2.4561,-2.455,-2.4541,-2.4543,-2.4525,-2.4521,-2.4511,-2.4494,-2.4492,-2.4476,-2.4458,-2.4448,-2.4446,-2.4433,-2.4438,-2.444,-2.4442,-2.4446,-2.4393,-2.4444,-2.4443,-2.4443,-2.4443,-2.4443,0,-2.464,-2.4627,-2.4623,-2.4609,-2.4606,-2.4584,-2.4572,-2.457,-2.4568,-2.4555,-2.4549,-2.4543,-2.4537,-2.4515,-2.4506,-2.4508,-2.4498,-2.4507,-2.4507,-2.4504,-2.4458,-2.4455,-2.4515,-2.4515,-2.4515,-2.4515,-2.4515,-2.4515,-2.4672,-2.4679,-2.4664,-2.4664,-2.4651,-2.4649,-2.4643,-2.4634,-2.4623,-2.4618,-2.4612,-2.4598,-2.4581,-2.457,-2.4563,-2.4557,-2.4555,-2.4567,-2.4558,-2.4515,-2.4508,-2.4501,-2.4499,-2.4567,-2.4567,-2.4604,-2.4605,-2.4605]}]]